AirNav   Everest Fuels
 
 535 users online  

KEZI Kewanee Municipal Airport
Kewanee, Illinois, USA

GOING TO KEWANEE?


FAA INFORMATION EFFECTIVE 16 JUNE 2022

Location

FAA Identifier: EZI
Lat/Long: 41-12-18.7000N 089-57-49.9000W
41-12.311667N 089-57.831667W
41.2051944,-89.9638611
(estimated)
Elevation: 858 ft. / 261.5 m (surveyed)
Variation: 02W (2015)
From city: 3 miles SW of KEWANEE, IL
Time zone: UTC -5 (UTC -6 during Standard Time)
Zip code: 61443

Airport Operations

Airport use: Open to the public
Control tower: no
ARTCC: CHICAGO CENTER
FSS: KANKAKEE FLIGHT SERVICE STATION
NOTAMs facility: IKK (NOTAM-D service available)
Attendance: MON-FRI 0800-1800, ALL SAT 0900-1700, ALL SUN 0900-1700
Pattern altitude: 1258 ft. MSL
TPA: 400 FT AGL ULTRALIGHT.
Wind indicator: lighted
Segmented circle: yes
Lights: MIRL RY 09/27 PRESET ON LOW INTST; TO INCR INTST & ACTVT MIRL RY 01/19 & TWY LGTS - CTAF.
Beacon: white-green (lighted land airport)
Operates sunset to sunrise.

Airport Communications

CTAF/UNICOM: 122.8
QUAD CITY APPROACH: 133.275
QUAD CITY DEPARTURE: 133.275
  • APCH/DEP SVC PRVDD BY CHICAGO ARTCC (ZAU) ON FREQS 118.75/377.05 (MOLINE RCAG) WHEN QUAD CITY APCH CLSD.

Airport Services

Fuel available: 100LL
Parking: hangars and tiedowns
Airframe service: MAJOR
Powerplant service: MAJOR
Bottled oxygen: NONE
Bulk oxygen: NONE

Runway Information

Runway 9/27

Dimensions: 4500 x 75 ft. / 1372 x 23 m
Surface: asphalt, in good condition
Weight bearing capacity: 
Single wheel: 20.0
Runway edge lights: medium intensity
RUNWAY 9  RUNWAY 27
Latitude: 41-12.245988N41-12.231790N
Longitude: 089-58.428632W089-57.447698W
Elevation: 853.8 ft.856.3 ft.
Traffic pattern: leftleft
Runway heading: 093 magnetic, 091 true273 magnetic, 271 true
Markings: nonprecision, in good conditionnonprecision, in good condition
Visual slope indicator: pulsating/steady burning VASI on left (3.50 degrees glide path)
RY 09 PVASI UNUSBL BYD 6 DEG LEFT AND RIGHT OF CNTRLN.
pulsating/steady burning VASI on left (3.00 degrees glide path)
RY 27 PVASI UNUSBL BYD 6 DEG LEFT AND RIGHT OF CNTRLN.
Runway end identifier lights: no
Touchdown point: yes, no lightsyes, no lights

Runway 1/19

Dimensions: 3200 x 60 ft. / 975 x 18 m
Surface: asphalt, in good condition
Weight bearing capacity: 
Single wheel: 20.0
Runway edge lights: medium intensity
RUNWAY 1  RUNWAY 19
Latitude: 41-12.156590N41-12.673108N
Longitude: 089-57.752145W089-57.614733W
Elevation: 855.1 ft.837.6 ft.
Traffic pattern: leftleft
Runway heading: 013 magnetic, 011 true193 magnetic, 191 true
Markings: nonprecision, in good conditionnonprecision, in good condition
Touchdown point: yes, no lightsyes, no lights

Airport Ownership and Management from official FAA records

Ownership: Publicly-owned
Owner: KEWANEE AIRPORT AUTHORITY
3769 MIDLAND RD
KEWANEE, IL 61443
Phone 309-853-8671
Manager: ROSS CARBIENER
3769 MIDLAND RD.
KEWANEE, IL 61443
Phone 309-853-8671

Airport Operational Statistics

Aircraft based on the field: 21
Single engine airplanes: 20
Multi engine airplanes: 1
    
Aircraft operations: avg 33/day *
67% local general aviation
33% transient general aviation
<1% military
* for 12-month period ending 31 March 2020

Additional Remarks

ULTRALIGHT ACTIVITY ON & INVOF ARPT.
HOSPITAL HELIPORT 1.2 NM NORTHEAST OF ARPT.
FOR CD CTC CHICAGO ARTCC AT 630-906-8921.
AUTOMATED WX ADZY AVBL ON CTAF - 4 MIC CLICKS TO ACTVT.

Instrument Procedures

NOTE: All procedures below are presented as PDF files. If you need a reader for these files, you should download the free Adobe Reader.

NOT FOR NAVIGATION. Please procure official charts for flight.
FAA instrument procedures published for use from 16 June 2022 at 0901Z to 14 July 2022 at 0900z.

 
IAPs - Instrument Approach Procedures
RNAV (GPS) RWY 01   download (204KB)
RNAV (GPS) RWY 09   download (236KB)
RNAV (GPS) RWY 19   download (199KB)
RNAV (GPS) RWY 27   download (232KB)
NOTE: Special Take-Off Minimums/Departure Procedures apply   download (201KB)

Other nearby airports with instrument procedures:

KGBG - Galesburg Municipal Airport (27 nm SW)
C75 - Marshall County Airport (28 nm SE)
KMLI - Quad Cities International Airport (29 nm NW)
3MY - Mount Hawley Auxiliary Airport (29 nm SE)
C66 - Monmouth Municipal Airport (34 nm SW)
 
Loc | Ops | Rwys | IFR | FBO | Links
Com | Nav | Svcs | Stats | Notes
Area around KEZI (Kewanee Municipal Airport)
 
Road maps at: MapQuest Bing Google
 
Aerial photo
WARNING: Photo may not be current or correct
Aerial photo of KEZI (Kewanee Municipal Airport)
Photo by Greg Neaveill
Photo taken 09-Nov-2016
looking southeast

Do you have a better or more recent aerial photo of Kewanee Municipal Airport that you would like to share? If so, please send us your photo.

 
Sectional chart

 
Airport distance calculator
Flying to Kewanee Municipal Airport? Find the distance to fly.

From to KEZI

Sunrise and sunset
Times for 25-Jun-2022
 Local
(UTC-5)
 Zulu
(UTC)
Morning civil twilight04:5509:55
Sunrise05:2910:29
Sunset20:3601:36
Evening civil twilight21:0902:09

Current date and time
Zulu (UTC)  25-Jun-2022 08:12:39
Local (UTC-5)  25-Jun-2022 03:12:39
 
METAR
KGBG 
27nm SW 
250755Z AUTO 13006KT 10SM SCT075 SCT110 21/19 A2996 RMK AO2 LTG DSNT N AND NW T02050185
KMLI 
29nm NW 
250803Z AUTO 18007KT 7SM TS BKN070 OVC085 24/17 A2993 RMK AO2 LTG DSNT W AND NW TSB0757 T02390172
KPIA 
35nm S 
250754Z 25005KT 10SM -RA FEW070 BKN110 23/17 A3000 RMK AO2 RAB50 SLP153 P0000 T02330172
KSQI 
35nm N 
250756Z 10006KT 10SM CLR 19/17 A2996 RMK AO2 SLP009 T01940172
KDVN 
37nm NW 
250752Z AUTO 15007KT 10SM VCTS SCT075 BKN085 BKN110 23/17 A2995 RMK AO2 LTG DSNT W-N SLP134 T02330172
KVYS 
38nm E 
250755Z AUTO 00000KT 10SM CLR 21/16 A2999 RMK AO2 LTG DSNT W T02080157
KCWI 
40nm NW 
250756Z AUTO 14007KT 9SM -RA BKN095 22/17 A2995 RMK AO2 LTG DSNT SW-NW RAB39 SLP138 P0000 T02220172
TAF
KMLI 
29nm NW 
250542Z 2506/2606 14005KT P6SM VCSH BKN100 FM250800 14007KT 4SM TSRA BKN040CB FM251400 16013G21KT P6SM BKN030 FM251800 19017G25KT P6SM BKN040 FM252300 25010KT P6SM BKN050
KPIA 
35nm S 
250520Z 2506/2606 14005KT P6SM VCSH BKN100 FM251200 17009KT P6SM VCTS BKN100CB FM251800 17012G22KT P6SM SCT050 BKN250 FM260000 20008KT 6SM SHRA VCTS BKN035CB FM260300 27008KT 6SM SHRA VCTS BKN040CB
NOTAMs
Click for the latest NOTAMs
NOTAMs are issued by the DoD/FAA and will open in a separate window not controlled by AirNav.

 

 
 

FBO, Fuel Providers, and Aircraft Ground Support

  
 Business Name 
 
 Contact 
 
 Services / Description 
 
Fuel Prices
 
Comments
  
Kewanee Airport Authority 309-853-8671
no information available

If you are affiliated with Kewanee Airport Authority and would like to show here your services, contact info, web link, logo, and more, click here
100LL
SS $5.62 
 Updated 18-Jun-2022
 
   write
SS=Self service
Update Fuel Prices
 

Would you like to see your business listed on this page?

 If your business provides an interesting product or service to pilots, flight crews, aircraft, or users of the Kewanee Municipal Airport, you should consider listing it here.  To start the listing process, click on the button below
 
Add a business
 

Other Pages about Kewanee Municipal Airport

www.kewaneeairport.com
 
Update a link
 
Copyright © AirNav, LLC. All rights reserved. Privacy Policy  Contact